TimePDT,TemperatureF,Dew PointF,Humidity,Sea Level PressureIn,VisibilityMPH,Wind Direction,Wind SpeedMPH,Gust SpeedMPH,PrecipitationIn,Events,Conditions,WindDirDegrees,DateUTC
12:55 AM,57.2,57.2,100,30.01,10.0,Calm,Calm,-,N/A,,Overcast,0,2012-10-30 07:55:00
1:15 AM,57.2,57.2,100,30.01,10.0,Calm,Calm,-,N/A,,Overcast,0,2012-10-30 08:15:00
1:55 AM,57.2,57.2,100,30.00,1.2,SE,4.6,-,N/A,,Overcast,130,2012-10-30 08:55:00
2:15 AM,59.0,59.0,100,30.00,1.0,SE,3.5,-,N/A,,Overcast,140,2012-10-30 09:15:00
2:35 AM,57.2,57.2,100,30.00,6.0,SE,4.6,-,N/A,,Overcast,130,2012-10-30 09:35:00
2:55 AM,57.2,57.2,100,30.00,6.0,SSE,4.6,-,N/A,,Overcast,150,2012-10-30 09:55:00
3:15 AM,59.0,59.0,100,30.00,10.0,SSE,4.6,-,N/A,,Mostly Cloudy,160,2012-10-30 10:15:00
3:35 AM,57.2,57.2,100,30.00,10.0,Calm,Calm,-,N/A,,Mostly Cloudy,0,2012-10-30 10:35:00
3:55 AM,57.2,57.2,100,30.00,9.0,Calm,Calm,-,N/A,,Scattered Clouds,0,2012-10-30 10:55:00
4:15 AM,59.0,59.0,100,30.00,10.0,Calm,Calm,-,N/A,,Mostly Cloudy,0,2012-10-30 11:15:00
4:35 AM,59.0,59.0,100,29.99,10.0,Calm,Calm,-,N/A,,Scattered Clouds,0,2012-10-30 11:35:00
5:15 AM,57.2,55.4,94,29.96,2.5,Calm,Calm,-,N/A,,Partly Cloudy,0,2012-10-30 12:15:00
5:35 AM,57.2,55.4,94,29.95,0.5,SE,4.6,-,N/A,,Overcast,130,2012-10-30 12:35:00
5:55 AM,57.2,55.4,94,29.95,0.5,Calm,Calm,-,N/A,,Overcast,0,2012-10-30 12:55:00
6:35 AM,57.2,57.2,100,29.94,10.0,Calm,Calm,-,N/A,,Partly Cloudy,0,2012-10-30 13:35:00
6:55 AM,57.2,57.2,100,29.94,5.0,SW,3.5,-,N/A,,Scattered Clouds,230,2012-10-30 13:55:00
7:15 AM,57.2,57.2,100,29.93,10.0,SE,3.5,-,N/A,,Partly Cloudy,130,2012-10-30 14:15:00
7:55 AM,57.2,55.4,94,29.92,5.0,SE,5.8,-,N/A,,Scattered Clouds,140,2012-10-30 14:55:00
8:15 AM,57.2,57.2,100,29.92,5.0,SE,6.9,-,N/A,,Scattered Clouds,140,2012-10-30 15:15:00
8:35 AM,57.2,57.2,100,29.93,3.0,SE,5.8,-,N/A,,Overcast,130,2012-10-30 15:35:00
8:55 AM,57.2,57.2,100,29.93,10.0,SE,5.8,-,N/A,,Overcast,140,2012-10-30 15:55:00
9:15 AM,57.2,57.2,100,29.91,10.0,SSE,6.9,-,N/A,,Mostly Cloudy,150,2012-10-30 16:15:00
9:35 AM,59.0,59.0,100,29.92,10.0,South,5.8,-,N/A,,Overcast,180,2012-10-30 16:35:00
9:55 AM,59.0,59.0,100,29.92,8.0,West,6.9,-,N/A,,Overcast,260,2012-10-30 16:55:00
10:15 AM,59.0,59.0,100,29.92,3.0,West,5.8,-,N/A,,Overcast,260,2012-10-30 17:15:00
10:35 AM,60.8,59.0,94,29.91,5.0,Calm,Calm,-,N/A,,Overcast,0,2012-10-30 17:35:00
10:55 AM,60.8,59.0,94,29.93,6.0,West,6.9,-,N/A,,Overcast,260,2012-10-30 17:55:00
11:15 AM,60.8,60.8,100,29.92,3.0,South,8.1,-,0.01,,Overcast,170,2012-10-30 18:15:00
11:35 AM,60.8,60.8,100,29.92,10.0,South,8.1,-,0.02,,Overcast,180,2012-10-30 18:35:00
11:55 AM,62.6,60.8,94,29.92,3.0,South,11.5,-,0.02,,Overcast,190,2012-10-30 18:55:00
12:15 PM,62.6,62.6,100,29.91,2.0,South,15.0,18.4,N/A,,Overcast,180,2012-10-30 19:15:00
12:35 PM,62.6,60.8,94,29.91,2.0,South,9.2,19.6,N/A,,Overcast,190,2012-10-30 19:35:00
12:55 PM,62.6,62.6,100,29.90,2.0,South,11.5,18.4,N/A,,Overcast,190,2012-10-30 19:55:00
1:15 PM,62.6,62.6,100,29.89,2.0,South,9.2,-,N/A,,Overcast,190,2012-10-30 20:15:00
1:35 PM,62.6,60.8,94,29.89,2.0,SSW,17.3,23.0,N/A,,Overcast,200,2012-10-30 20:35:00
1:55 PM,62.6,60.8,94,29.88,7.0,SSW,15.0,23.0,N/A,,Overcast,200,2012-10-30 20:55:00
2:15 PM,62.6,60.8,94,29.87,10.0,SSW,18.4,25.3,N/A,,Overcast,200,2012-10-30 21:15:00
2:35 PM,62.6,60.8,94,29.88,10.0,SSW,16.1,21.9,N/A,,Overcast,200,2012-10-30 21:35:00
2:55 PM,64.4,60.8,88,29.87,10.0,SSW,17.3,21.9,N/A,,Overcast,200,2012-10-30 21:55:00
3:15 PM,62.6,60.8,94,29.86,10.0,SSW,20.7,27.6,N/A,,Overcast,200,2012-10-30 22:15:00
3:35 PM,64.4,60.8,88,29.86,10.0,SSW,13.8,25.3,N/A,,Mostly Cloudy,210,2012-10-30 22:35:00
3:55 PM,62.6,60.8,94,29.87,10.0,SW,16.1,25.3,N/A,,Mostly Cloudy,220,2012-10-30 22:55:00
4:15 PM,62.6,59.0,88,29.87,10.0,SSW,17.3,31.1,N/A,,Mostly Cloudy,210,2012-10-30 23:15:00
4:35 PM,62.6,57.2,82,29.86,10.0,SSW,17.3,28.8,N/A,,Overcast,200,2012-10-30 23:35:00
4:55 PM,60.8,57.2,88,29.85,10.0,SSW,19.6,29.9,N/A,,Overcast,200,2012-10-30 23:55:00
5:15 PM,60.8,57.2,88,29.85,10.0,SSW,13.8,27.6,N/A,,Overcast,200,2012-10-31 00:15:00
5:35 PM,60.8,57.2,88,29.84,10.0,SSW,10.4,18.4,N/A,,Overcast,200,2012-10-31 00:35:00
5:55 PM,60.8,59.0,94,29.83,10.0,South,6.9,-,N/A,,Overcast,180,2012-10-31 00:55:00
6:15 PM,60.8,57.2,88,29.83,10.0,South,6.9,-,N/A,,Overcast,180,2012-10-31 01:15:00
6:35 PM,60.8,57.2,88,29.83,10.0,South,10.4,20.7,N/A,,Overcast,180,2012-10-31 01:35:00
6:55 PM,60.8,57.2,88,29.81,10.0,SSW,10.4,19.6,N/A,,Overcast,200,2012-10-31 01:55:00
7:15 PM,60.8,57.2,88,29.83,10.0,SSW,9.2,-,N/A,,Overcast,210,2012-10-31 02:15:00
7:35 PM,60.8,59.0,94,29.83,9.0,SSW,12.7,-,N/A,,Overcast,210,2012-10-31 02:35:00
7:55 PM,59.0,57.2,94,29.82,10.0,SSW,15.0,20.7,N/A,,Overcast,210,2012-10-31 02:55:00
8:15 PM,59.0,57.2,94,29.82,7.0,SSW,18.4,25.3,N/A,,Overcast,200,2012-10-31 03:15:00
8:35 PM,59.0,57.2,94,29.81,10.0,SSW,15.0,20.7,0.01,,Overcast,210,2012-10-31 03:35:00
8:55 PM,59.0,57.2,94,29.81,10.0,SSW,12.7,26.5,0.01,,Overcast,200,2012-10-31 03:55:00
9:15 PM,59.0,57.2,94,29.81,10.0,South,11.5,18.4,N/A,,Overcast,190,2012-10-31 04:15:00
9:35 PM,59.0,57.2,94,29.80,10.0,South,10.4,-,N/A,,Overcast,180,2012-10-31 04:35:00
9:55 PM,59.0,57.2,94,29.81,8.0,South,8.1,-,N/A,,Overcast,190,2012-10-31 04:55:00
10:15 PM,59.0,57.2,94,29.80,10.0,SSW,11.5,-,N/A,,Overcast,200,2012-10-31 05:15:00
10:35 PM,59.0,57.2,94,29.81,10.0,SSW,8.1,-,N/A,,Overcast,200,2012-10-31 05:35:00
10:55 PM,59.0,57.2,94,29.81,10.0,South,8.1,-,N/A,,Overcast,190,2012-10-31 05:55:00
11:15 PM,59.0,57.2,94,29.80,10.0,SSW,10.4,16.1,N/A,,Overcast,200,2012-10-31 06:15:00
11:35 PM,59.0,57.2,94,29.80,10.0,South,13.8,18.4,N/A,,Overcast,190,2012-10-31 06:35:00
11:55 PM,59.0,57.2,94,29.79,10.0,SSW,10.4,-,N/A,,Overcast,200,2012-10-31 06:55:00